Location: Veytaux
(46.4185°N, 6.9320°E)
Time: 08:21:37
(UTC+00:00)

Cosmos 1140 Rocket - Pass Details

Date: 27 May 2022
Orbit: 743 x 767 km, 74.1° (Epoch: 01 July)

Event Time Altitude Azimuth Distance (km) Brightness Sun altitude
Rises 02:15:08 0° 339° (NNW) 3,247 7.2 -12.6°
Reaches altitude 10° 02:17:32 10° 341° (NNW) 2,317 6.4 -12.4°
Maximum altitude 02:22:48 77° 67° (ENE) 793 3.7 -11.8°
Drops below altitude 10° 02:28:01 10° 154° (SSE) 2,296 5.8 -11.2°
Sets 02:30:23 0° 156° (SSE) 3,216 6.5 -10.9°
